Content
SEND FEEDBACK

Daily
Averages
Monthly
Summary
United States of America

GLENVIEW, ILLINOIS


Home > North America > United States > Illinois
Elevation: 653 feet     Latitude: 42 05N     Longitude: 087 50W

WEATHER
 
SELECT A DAY
Number of Records: 194,860;   Date Range: 7/8/95 - 7/26/14
 
SHARE

PRINT THIS DATA

[ ← Previous Day ]
WEATHER ALMANAC - JANUARY 6, 2013
[ Next Day → ]
[ °C ]   °F
Weather ElementAverageHighLow
Temperature29.3 °F36 °F (1:52 am)19.9 °F (11:52 pm)
Dewpoint22.2 °F32 °F (1:52 am)16 °F (11:52 pm)
Humidity75.1 %86 % (1:52 am)65 % (2:06 pm)
Barometer30.11 in30.36 in (10:52 pm)29.91 in (3:36 am)
Wind Speed9.9 mph17.3 mph (11:52 am)
Wind Gust26.5 mph (11:52 am)
Weather ElementAverage
Visibility6.9 mi
Wind DirectionWSW (256.1 °)

Weather ElementTotal
Precipitation---
Heating Degree Days37.1 (Base 65)
Averaged from 36 records on January 6, 2013
WEATHER CONDITIONS BREAKOUT
WIND DIRECTION BREAKOUT
WEATHER BY HOUR - JANUARY 6, 2013
[ °C ]   °F
Local TimeTemperatureDewpointHumidityBarometerVisibilityWind DirectionWind SpeedGust SpeedPrecipitationEventsConditions
1:52 AM36.0 °F32.0 °F86 %29.94 in8.0 miWSW (240°)10.4 mph18.4 mphOvercast
2:52 AM36.0 °F30.9 °F82 %29.93 in8.0 miSW (230°)9.2 mphOvercast
3:36 AM35.6 °F30.2 °F81 %29.91 in7.0 miWSW (240°)6.9 mphOvercast
3:43 AM35.6 °F30.2 °F81 %29.91 in7.0 miWSW (250°)8.1 mph17.3 mphOvercast
3:52 AM35.1 °F30.9 °F85 %29.93 in7.0 miWSW (240°)10.4 mphOvercast
4:42 AM33.8 °F26.6 °F75 %29.91 in7.0 miWSW (250°)9.2 mph19.6 mphScattered Clouds
4:49 AM32.0 °F26.6 °F80 %29.91 in7.0 miWest (260°)11.5 mphMostly Cloudy
4:52 AM32.0 °F26.1 °F79 %29.93 in8.0 miWSW (250°)10.4 mphMostly Cloudy
5:52 AM30.0 °F21.9 °F72 %29.96 in9.0 miWNW (300°)13.8 mphOvercast
6:52 AM27.0 °F19.0 °F72 %30.00 in8.0 miWest (280°)15.0 mph23.0 mphOvercast
7:52 AM26.1 °F19.0 °F75 %30.02 in6.0 miWNW (290°)10.4 mphHaze
8:14 AM26.6 °F19.4 °F74 %30.01 in6.0 miWest (280°)12.7 mph19.6 mphHaze
8:26 AM26.6 °F17.6 °F69 %30.02 in6.0 miWNW (300°)15.0 mphHaze
8:42 AM26.6 °F17.6 °F69 %30.02 in5.0 miWNW (290°)10.4 mph19.6 mphHaze
8:52 AM26.1 °F18.0 °F71 %30.05 in6.0 miWNW (300°)11.5 mphHaze
9:52 AM26.1 °F19.0 °F75 %30.09 in5.0 miWNW (300°)15.0 mph21.9 mphHaze
10:44 AM26.6 °F19.4 °F74 %30.09 in5.0 miNW (310°)12.7 mphHaze
10:52 AM28.0 °F19.9 °F72 %30.11 in5.0 miWNW (300°)11.5 mphHaze
11:52 AM28.9 °F21.0 °F72 %30.10 in6.0 miWNW (300°)17.3 mph26.5 mphHaze
12:52 PM33.1 °F23.0 °F66 %30.12 in7.0 miNW (320°)15.0 mphScattered Clouds
1:32 PM30.2 °F21.2 °F69 %30.11 in7.0 miWNW (300°)12.7 mph23.0 mphMostly Cloudy
1:52 PM33.1 °F23.0 °F66 %30.15 in8.0 miWNW (300°)12.7 mphMostly Cloudy
2:06 PM33.8 °F23.0 °F65 %30.13 in8.0 miNW (310°)16.1 mph23.0 mphPartly Cloudy
2:52 PM32.0 °F23.0 °F69 %30.19 in9.0 miWNW (300°)10.4 mphMostly Cloudy
3:03 PM32.0 °F23.0 °F69 %30.18 in9.0 miNW (320°)11.5 mphScattered Clouds
3:43 PM30.2 °F23.0 °F75 %30.20 in9.0 miWNW (290°)11.5 mphMostly Cloudy
3:52 PM30.9 °F21.9 °F69 %30.22 in8.0 miNW (310°)8.1 mphMostly Cloudy
4:05 PM30.2 °F21.2 °F69 %30.21 in8.0 miWNW (290°)9.2 mphScattered Clouds
4:52 PM28.9 °F21.0 °F72 %30.25 in8.0 miWNW (300°)8.1 mphClear
5:52 PM27.0 °F21.0 °F78 %30.29 in9.0 miWNW (290°)4.6 mphClear
6:52 PM26.1 °F19.9 °F78 %30.31 in7.0 miCalmClear
7:52 PM25.0 °F19.9 °F81 %30.34 in6.0 miWest (270°)8.1 mphHaze
8:52 PM24.1 °F19.0 °F81 %30.34 in5.0 miCalmHaze
9:52 PM23.0 °F18.0 °F81 %30.35 in5.0 miCalmHaze
10:52 PM21.0 °F17.1 °F85 %30.36 in5.0 miSSW (210°)3.5 mphClear
11:52 PM19.9 °F16.0 °F85 %30.35 in5.0 miSSW (200°)4.6 mphClear
Hourly data recorded from KPWK, located miles away from Glenview, Illinois







STORIES FROM OUR PARTNERS